www.pogodaiklimat.ru

Погода и климат >> Архив погоды >> Иран >> Ahwaz


ПОГОДА в Ahwaz

  • Прогноз погоды в Ahwaz
  • Монитор погоды в Ahwaz
  • Климат города

АРХИВ ПОГОДЫ в Ahwaz

Время (UTC), дата Ветер
(напр.,м/с)
 
Видим.   Явления Облачность Т
(С)
Тd
(С)
f
(%)
Тe
(С)
Тes
(С)
Комфортность P
(гПа)
Po
(гПа)
Тmin
(С)
Tmax
(С)
R
(мм)
R24
(мм)
S
(см)
06 9.12 С 1 8000 м мгла 1/0
[Ac trans]
+15.7 +11.3 75 +16 +20 1020.0 1017.4
09 9.12 С 2 10 км 1/0
[Ac trans]
+21.2 +12.2 56 +23 +30 комфорт 1019.1 1016.5
12 9.12 С 2 10 км 3/0
[Ci sp]
+22.6 +10.1 45 +24 +26 комфорт 1017.7 1015.1
15 9.12 С 1 10 км ясно +18.7 +10.0 57 +20 +20 1018.3 1015.6 +22.8
18 9.12 З 1 10 км ясно +14.0 +10.2 78 +14 +14 1018.5 1015.9
21 9.12 СЗ 1 7000 м дымка ясно +12.8 +10.8 88 +13 +13 1018.1 1015.5
00 10.12 СЗ 1 7000 м дымка ясно +13.2 +10.2 82 +13 +13 1018.0 1015.4
03 10.12 СЗ 1 7000 м дымка 3/0
[Ac trans]
+11.5 +9.6 88 +11 +11 1016.8 1014.2 +11.5
06 10.12 СЗ 1 8000 м мгла 1/0
[Ac trans]
+16.6 +10.4 67 +17 +21 1018.2 1015.6
09 10.12 СЗ 3 10 км ясно +21.2 +10.0 49 +23 +29 комфорт 1017.2 1014.6
12 10.12 С 2 10 км 3/0
[Ac trans]
+22.6 +9.4 43 +24 +26 комфорт 1016.1 1013.5
15 10.12 СЗ 2 10 км 1/0
[Ac trans]
+19.4 +9.9 54 +21 +21 комфорт 1017.2 1014.5 +22.8
18 10.12 СЗ 2 10 км ясно +16.6 +9.4 62 +17 +17 1017.8 1015.2
21 10.12 СЗ 2 10 км ясно +16.0 +11.6 75 +16 +16 1018.1 1015.6
00 11.12 СЗ 2 8000 м дымка ясно +14.3 +11.6 84 +14 +14 1018.4 1015.8
03 11.12 З 2 6000 м дымка ясно +13.6 +12.0 90 +13 +13 1018.9 1016.3 +13.4
06 11.12 З 1 1800 м дымка ясно +15.6 +12.5 82 +16 +20 1020.8 1018.2
09 11.12 З 3 3000 м мгла ясно +17.5 +13.3 76 +18 +24 1020.4 1017.8
12 11.12 СЗ 3 8000 м мгла ясно +21.3 +10.9 51 +23 +25 комфорт 1018.9 1016.3
15 11.12 З 2 10 км ясно +17.8 +12.1 69 +18 +18 1019.3 1016.7 +21.3
18 11.12 СЗ 3 10 км ясно +15.6 +12.5 82 +15 +15 1020.1 1017.5
21 11.12 СЗ 2 8000 м дымка ясно +14.8 +12.3 85 +14 +14 1020.1 1017.5
00 12.12 З 2 6000 м дымка ясно +13.0 +11.5 91 +12 +12 1020.1 1017.5
03 12.12 З 1 5000 м дымка ясно +11.2 +10.3 94 +11 +11 1020.1 1017.5 +10.8
06 12.12 З 2 6000 м мгла ясно +15.8 +11.4 75 +16 +19 1022.1 1019.4
09 12.12 СЗ 2 10 км ясно +19.6 +12.4 63 +22 +29 комфорт 1020.6 1018.0
12 12.12 С 1 10 км ясно +23.3 +9.3 41 +25 +27 комфорт 1019.4 1016.8
15 12.12 З 1 10 км ясно +17.7 +11.0 65 +19 +19 1019.6 1016.9 +23.8
18 12.12 СЗ 2 10 км ясно +15.9 +11.0 73 +16 +16 1019.9 1017.3
21 12.12 СЗ 2 10 км ясно +13.1 +10.5 84 +12 +12 1020.0 1017.4
00 13.12 С 1 10 км ясно +9.9 +9.3 96 +9 +9 1020.2 1017.6
03 13.12 В 1 10 км ясно +7.9 +7.5 97 +7 +7 1021.0 1018.4 +7.9
06 13.12 В 1 6000 м мгла ясно +14.8 +11.0 78 +15 +19 1022.5 1019.9
09 13.12 З 2 10 км ясно +20.7 +7.7 43 +23 +30 комфорт 1021.8 1019.1
12 13.12 С 2 10 км ясно +22.1 +8.8 43 +23 +26 комфорт 1020.3 1017.7
15 13.12 В 2 10 км ясно +16.5 +8.5 59 +17 +17 1020.8 1018.1 +22.1
18 13.12 З 1 8000 м дымка ясно +12.9 +9.8 81 +13 +13 1021.5 1018.8
21 13.12 СЗ 1 8000 м дымка ясно +11.7 +9.9 89 +11 +11 1022.2 1019.6
00 14.12 С 1 8000 м дымка ясно +13.0 +9.6 80 +13 +13 1022.5 1019.9
03 14.12 СЗ 1 6000 м дымка ясно +10.9 +9.6 92 +11 +11 1022.6 1020.0 +10.9
06 14.12 СЗ 1 7000 м мгла ясно +17.1 +11.0 67 +18 +22 1024.2 1021.5
09 14.12 С 2 10 км ясно +22.2 +11.0 49 +24 +32 комфорт 1022.7 1020.1
12 14.12 С 2 10 км ясно +23.8 +12.5 49 +26 +28 жарко 1021.9 1019.3
15 14.12 З 3 10 км 1/0
[Ci fib]
+19.8 +12.6 63 +22 +22 комфорт 1022.8 1020.2 +23.8
18 14.12 СЗ 3 7000 м дымка 1/0 2000 м
[Ac trans]
+17.2 +13.9 81 +17 +17 1023.2 1020.6
21 14.12 СЗ 2 5000 м дымка ясно +15.1 +13.1 88 +15 +15 1022.8 1020.2
00 15.12 З 2 4000 м дымка ясно +14.0 +12.4 90 +13 +13 1022.3 1019.7
03 15.12 СЗ 2 2000 м дымка ясно +11.7 +11.2 97 +10 +10 1023.1 1020.5 +11.7
06 15.12 З 2 4000 м мгла ясно +13.8 +10.3 79 +13 +16 1024.2 1021.5
09 15.12 З 2 10 км ясно +17.6 +12.1 70 +18 +25 1023.1 1020.5
12 15.12 З 3 10 км ясно +19.9 +12.3 62 +22 +24 комфорт 1021.6 1018.9
15 15.12 СЗ 2 10 км ясно +17.0 +12.8 76 +17 +17 1022.7 1020.1 +20.3
18 15.12 СЗ 1 6000 м дымка ясно +12.7 +11.6 93 +13 +13 1023.7 1021.0
21 15.12 З 2 8000 м дымка ясно +12.6 +10.7 88 +12 +12 1023.6 1021.0
00 16.12 В 1 6000 м дымка ясно +9.6 +8.7 94 +9 +9 1023.7 1021.1
03 16.12 В 1 3000 м дымка ясно +7.1 +6.6 97 +6 +6 1024.0 1021.3 +7.1

 

Местоположение метеостанции Ahwaz (Иран): широта 31.33 долгота 48.67 высота над уровнем моря 22 м.

В архиве по умолчанию представлена погода в Ahwaz за последнюю неделю. Архивные данные за месяц целиком и за предыдущие месяцы, начиная с января 2011 года, Вы можете получить, выбрав интересующий диапазон дат из раскрывающегося списка и нажав кнопку "Ввод!".


*Определитесь, кто Вы:
робот инопланетянин человек

Внимание! Время в таблицах - всемирное. Для получения местного времени необходимо прибавить поправку, которая в Ahwaz равна 3.5 ч.

Смотрите также архив погоды в соседних городах и на ближайших метеорологических станциях:

Погода в Masjed-Soleyman (Иран) (92 км)
Погода в Safi-Abad Dezful (Иран) (107 км)
Погода в Omidieh (Иран) (114 км)
Погода в Abadan (Иран) (114 км)
Погода в Basrah (Ирак) (120 км)
Погода в Basrah Airport (Ирак) (124 км)
Погода в Fao (Ирак) (151 км)
Погода в Amarah (Ирак) (153 км)
Погода в Abdaly (Кувейт) (167 км)
Погода в Bubiyan (Кувейт) (176 км)

Пояснения к столбцам:

Ветер - указаны скорость ветра в м/с - средняя за 10 мин, порывы в срок и между сроками (в фигурных скобках) и направление, откуда дует ветер: С - северный, СВ - северо-восточный, В - восточный, ЮВ - юго-восточный, Ю - южный, ЮЗ - юго-западный, З - западный, СЗ - северо-западный.
Видимость - горизонтальная дальность видимости в метрах или километрах. При видимости от 1 до 10 км при отсутствии осадков обычно наблюдается дымка, при ухудшении видимости до 1 км и менее - туман. В сухую погоду видимость может ухудшаться дымом, пылью или мглою.
Явления - указаны атмосферные явления, наблюдавшиеся в срок или в последний час перед сроком; фигурными скобками обозначены явления, наблюдавшиеся между сроками (за 1-3 часа до срока); квадратными скобками обозначены град или гололедные отложения с указанием их диаметра в мм.
Облачность - указаны через наклонную черту общая и нижняя облачность в баллах и высота нижней границы облаков в метрах; квадратными скобками обозначены формы облаков: Ci - перистые, Cs - перисто-слоистые, Cc - перисто-кучевые, Ac - высококучевые, As - высокослоистые, Sc - слоисто-кучевые, Ns - слоисто-дождевые, Cu - кучевые, Cb - кучево-дождевые. Подробнее классификацию облаков см. в Атласе облаков (PDF).
T - Температура воздуха - температура, измеренная на высоте 2 м над землей.
Td - Температура точки росы - температура, при понижении до которой содержащийся в воздухе водяной пар достигнет насыщения.
f - Относительная влажность воздуха - влажноcть воздуха, измеренная на высоте 2 м над землей.
Te - Эффективная температура - температура, которую ощущает одетый по сезону человек в тени. Характеристика душности погоды. При расчете учитывается влияние влажности воздуха и скорости ветра на теплоощущения человека.
Tes - Эффективная температура на солнце - температура, которую ощущает человек, с поправкой на солнечный нагрев. Характеристика знойности погоды. Зависит от высоты солнца над горизонтом, облачности и скорости ветра. Ночью, в пасмурную погоду, а также при ветре 12 м/с и более поправка равна нулю.
P - Атмосферное давление - приведенное к уровню моря атмосферное давление.
Po - Атмосферное давление - измеренное на уровне метеостанции атмосферное давление.
Tmin - Минимальная температура - минимум температуры воздуха на высоте 2 м над землей.
Tmax - Максимальная температура - максимум температуры воздуха на высоте 2 м над землей.
R - Количество осадков - Количество выпавших осадков за период времени, мм. При наведении курсора мыши на число - период времени, за который выпало указанное количество осадков.
R24 - Количество осадков - Количество выпавших осадков за 24 часа, мм.
S - Снежный покров - Высота снежного покрова, см. При наведении курсора мыши на число - состояние снежного покрова и степень покрытия местности в баллах.